NILESAT 201

Last updated on Mon Sep 15 2025 00:02:47 GMT+0000 (Coordinated Universal Time)

1 36830U 10037A 25257.22720330 -.00000069 00000+0 00000+0 0 9995 2 36830 0.0167 186.9822 0005817 356.8156 244.4509 1.00271517 55593
UTC large
Height (km)
Speed (km/s)
/
Latitude / Longitude
Inclination (degrees)
Orbital Period (minutes)
Azimuth
Elevation
Range (km)
Doppler Factor

Next 0 passes for location: London (51.5072 / 0.1276)

Sorry there are no passes over London.